Location: Makakahi
(40.6833°S, 175.6000°E)
Time: 20:27:07
(UTC+00:00)

DMSP F15 (USA 147) - Visible Passes

Search period start: 05 December 2024 00:00
Search period end: 15 December 2024 00:00
Orbit: 827 x 842 km, 99.1° (Epoch: 05 December)

Date Brightness Start Highest point End Pass type
(mag) Time Alt. Az. Time Alt. Az. Time Alt. Az.
05 Dec 6.1 08:06:27 10° S 08:11:51 55° WSW 08:17:11 10° NNW visible
06 Dec 8.4 09:33:16 10° SW 09:34:47 11° SW 09:36:18 10° WSW visible
07 Dec 8.1 09:15:26 10° SSW 09:18:33 16° WSW 09:21:41 10° W visible
08 Dec 7.9 08:58:15 10° SSW 09:02:18 21° WSW 09:06:19 10° WNW visible
09 Dec 7.4 08:41:19 10° S 08:45:59 29° WSW 08:50:36 10° WNW visible
10 Dec 6.8 08:24:31 10° S 08:29:37 39° WSW 08:34:40 10° NW visible
11 Dec 6.2 08:07:50 10° S 08:13:14 54° WSW 08:18:33 10° NNW visible
12 Dec 8.5 09:34:43 10° SW 09:36:08 11° SW 09:37:33 10° WSW visible
13 Dec 8.1 09:16:49 10° SSW 09:19:55 15° WSW 09:22:59 10° W visible
14 Dec 7.9 08:59:37 10° SSW 09:03:38 21° WSW 09:07:37 10° WNW visible
